Weather History for LTBA - June, 2014

Change the Weather History Date:

Monday, June 9, 2014

  Actual Average Record
Temperature  
Mean Temperature 73 °F -  
Max Temperature 80 °F 79 °F - ()
Min Temperature 66 °F 65 °F - ()
Cooling Degree Days 8    
Growing Degree Days 23 (Base 50)    
Moisture  
Dew Point 62 °F    
Average Humidity 72    
Maximum Humidity 94    
Minimum Humidity 44    
Precipitation  
Precipitation 0.00 in - - ()
Sea Level Pressure  
Sea Level Pressure 29.94 in    
Wind  
Wind Speed 10 mph ()    
Max Wind Speed 20 mph    
Max Gust Speed -    
Visibility 6.1 miles    
Events      
T = Trace of Precipitation, MM = Missing Value Source: Averaged Metar Reports

Daily Weather History Graph

Daily Weather History Graph

Search for Another Location

Airport or City:

Trip Planner

Search our weather history database for the weather conditions in past years. The results will help you decide how hot, cold, wet, or windy it might be!

Date:

Astronomy

Jun. 09, 2014 Rise Set
Actual Time 5:32 AM EEST 8:35 PM EEST
Civil Twilight 4:59 AM EEST 9:08 PM EEST
Nautical Twilight 4:16 AM EEST 9:51 PM EEST
Astronomical Twilight 3:26 AM EEST 10:41 PM EEST
Moon 4:34 PM EEST (6/9) 2:50 AM EEST (6/9)
Length of Visible Light 16h 09m
Length of Day
15h 03m
Waxing Gibbous, 83% of the Moon is Illuminated
Jun 9
Waxing Gibbous
Jun 13
Full
Jun 19
Last Quarter
Jun 27
New
Jul 5
First Quarter

Hourly Weather History & Observations

Time (EEST) Temp. Dew Point Humidity Pressure Visibility Wind Dir Wind Speed Gust Speed Precip Events Conditions
12:00 AM 67 °F 63 °F 84% 29.94 in 6 mi NNW 10.4 mph - -  
12:20 AM 68.0 °F 62.6 °F 83% 29.92 in - NNW 11.5 mph - N/A   Clear
12:50 AM 66.2 °F 62.6 °F 88% 29.92 in - NNW 8.1 mph - N/A   Clear
1:20 AM 66.2 °F 64.4 °F 94% 29.92 in - North 12.7 mph - N/A   Clear
1:50 AM 66.2 °F 62.6 °F 88% 29.92 in - NNW 12.7 mph - N/A   Clear
2:20 AM 66.2 °F 62.6 °F 88% 29.89 in - North 10.4 mph - N/A   Clear
2:50 AM 66.2 °F 64.4 °F 94% 29.89 in - NNW 11.5 mph - N/A   Clear
3:00 AM 67 °F 64 °F 85% 29.89 in 6 mi NNW 11.5 mph - -  
3:20 AM 68.0 °F 64.4 °F 88% 29.89 in 6.2 mi NE 5.8 mph - N/A   Partly Cloudy
3:50 AM 68.0 °F 64.4 °F 88% 29.89 in 5.0 mi East 5.8 mph - N/A   Scattered Clouds
4:20 AM 68.0 °F 64.4 °F 88% 29.89 in 3.7 mi NE 5.8 mph - N/A   Scattered Clouds
4:50 AM 68.0 °F 62.6 °F 83% 29.89 in 3.7 mi NNE 4.6 mph - N/A   Scattered Clouds
5:20 AM 68.0 °F 62.6 °F 83% 29.89 in 6.2 mi NNE 6.9 mph - N/A   Scattered Clouds
5:50 AM 68.0 °F 62.6 °F 83% 29.89 in 6.2 mi NE 5.8 mph - N/A   Scattered Clouds
6:00 AM 68 °F 63 °F 80% 29.91 in 12 mi NE 5.8 mph - -   Partly Cloudy
6:20 AM 68.0 °F 64.4 °F 88% 29.89 in 6.2 mi ENE 3.5 mph - N/A   Scattered Clouds
6:50 AM 68.0 °F 62.6 °F 83% 29.92 in 6.2 mi NNE 6.9 mph - N/A   Scattered Clouds
7:20 AM 68.0 °F 62.6 °F 83% 29.92 in 6.2 mi NNE 9.2 mph - N/A   Scattered Clouds
7:50 AM 68.0 °F 62.6 °F 83% 29.92 in 6.2 mi NE 10.4 mph - N/A   Scattered Clouds
8:20 AM 69.8 °F 62.6 °F 78% 29.95 in 6.2 mi NE 10.4 mph - N/A   Scattered Clouds
8:50 AM 71.6 °F 62.6 °F 73% 29.95 in 6.2 mi ENE 10.4 mph - N/A   Mostly Cloudy
9:00 AM 71 °F 62 °F 66% 29.95 in 6 mi ENE 10.4 mph - -   Mostly Cloudy
9:20 AM 71.6 °F 62.6 °F 73% 29.95 in 6.2 mi NE 10.4 mph - N/A   Mostly Cloudy
9:50 AM 73.4 °F 62.6 °F 69% 29.95 in 6.2 mi NNE 9.2 mph - N/A   Scattered Clouds
10:20 AM 75.2 °F 62.6 °F 65% 29.95 in 6.2 mi NE 8.1 mph - N/A   Scattered Clouds
10:50 AM 77.0 °F 62.6 °F 61% 29.95 in 6.2 mi NNE 8.1 mph - N/A   Scattered Clouds
11:20 AM 77.0 °F 60.8 °F 57% 29.95 in 6.2 mi NE 9.2 mph - N/A   Scattered Clouds
11:50 AM 78.8 °F 60.8 °F 54% 29.95 in 6.2 mi NE 10.4 mph - N/A   Scattered Clouds
12:00 PM 78 °F 60 °F 44% 29.96 in 6 mi NE 10.4 mph - -   Partly Cloudy
12:20 PM 78.8 °F 60.8 °F 54% 29.95 in 6.2 mi NE 13.8 mph - N/A   Scattered Clouds
12:50 PM 78.8 °F 57.2 °F 47% 29.95 in 6.2 mi NE 15.0 mph - N/A   Scattered Clouds
1:20 PM 78.8 °F 57.2 °F 47% 29.95 in 6.2 mi NE 16.1 mph - N/A   Partly Cloudy
1:50 PM 78.8 °F 60.8 °F 54% 29.95 in 6.2 mi NE 12.7 mph - N/A   Partly Cloudy
2:20 PM 78.8 °F 60.8 °F 54% 29.95 in 6.2 mi NNE 16.1 mph - N/A   Partly Cloudy
2:50 PM 77.0 °F 60.8 °F 57% 29.95 in 6.2 mi North 19.6 mph - N/A   Partly Cloudy
3:00 PM 78 °F 61 °F 47% 29.95 in 6 mi North 19.6 mph - -   Scattered Clouds
3:20 PM 77.0 °F 59.0 °F 54% 29.95 in 6.2 mi North 18.4 mph - N/A   Partly Cloudy
3:50 PM 77.0 °F 62.6 °F 61% 29.95 in 6.2 mi NNE 15.0 mph - N/A   Partly Cloudy
4:20 PM 75.2 °F 62.6 °F 65% 29.95 in 6.2 mi North 19.6 mph - N/A   Partly Cloudy
4:50 PM 77.0 °F 62.6 °F 61% 29.95 in 6.2 mi NNE 15.0 mph - N/A   Partly Cloudy
5:20 PM 75.2 °F 60.8 °F 61% 29.95 in 6.2 mi NNE 16.1 mph - N/A   Partly Cloudy
5:50 PM 75.2 °F 60.8 °F 61% 29.95 in 6.2 mi North 15.0 mph - N/A   Partly Cloudy
6:00 PM 76 °F 61 °F 49% 29.95 in 6 mi North 15.0 mph - -   Scattered Clouds
6:20 PM 75.2 °F 60.8 °F 61% 29.95 in 6.2 mi NNE 16.1 mph - N/A   Partly Cloudy
6:50 PM 75.2 °F 60.8 °F 61% 29.95 in 6.2 mi NNE 13.8 mph - N/A   Partly Cloudy
7:20 PM 73.4 °F 62.6 °F 69% 29.95 in 6.2 mi NNE 13.8 mph - N/A   Partly Cloudy
7:50 PM 71.6 °F 60.8 °F 69% 29.95 in - NNE 16.1 mph - N/A   Clear
8:20 PM 71.6 °F 62.6 °F 73% 29.95 in - NNE 13.8 mph - N/A   Clear
8:50 PM 69.8 °F 62.6 °F 78% 29.98 in - NNE 10.4 mph - N/A   Clear
9:00 PM 70 °F 62 °F 68% 29.99 in 6 mi NNE 10.4 mph - -  
9:20 PM 69.8 °F 62.6 °F 78% 29.98 in - NNE 11.5 mph - N/A   Clear
9:50 PM 69.8 °F 62.6 °F 78% 29.98 in - NNE 10.4 mph - N/A   Clear
10:20 PM 68.0 °F 62.6 °F 83% 29.98 in - North 11.5 mph - N/A   Clear
10:50 PM 68.0 °F 62.6 °F 83% 29.98 in - North 9.2 mph - N/A   Clear
11:20 PM 66.2 °F 62.6 °F 88% 30.01 in - NNW 11.5 mph - N/A   Clear
11:50 PM 66.2 °F 62.6 °F 88% 29.98 in 5.0 mi North 11.5 mph - N/A   Partly Cloudy